TimeMDT,TemperatureF,Dew PointF,Humidity,Sea Level PressureIn,VisibilityMPH,Wind Direction,Wind SpeedMPH,Gust SpeedMPH,PrecipitationIn,Events,Conditions,WindDirDegrees,DateUTC
12:15 AM,33.8,24.8,70,29.98,10.0,Calm,Calm,-,N/A,,Partly Cloudy,0,2013-10-30 06:15:00
12:35 AM,30.2,23.0,75,29.98,10.0,ESE,3.5,-,N/A,,Clear,110,2013-10-30 06:35:00
12:55 AM,28.4,21.2,74,29.98,10.0,ESE,4.6,-,N/A,,Clear,120,2013-10-30 06:55:00
1:15 AM,28.4,21.2,74,29.99,10.0,Calm,Calm,-,N/A,,Scattered Clouds,0,2013-10-30 07:15:00
1:35 AM,28.4,23.0,80,29.99,10.0,Calm,Calm,-,N/A,,Mostly Cloudy,0,2013-10-30 07:35:00
1:55 AM,26.6,21.2,80,30.00,10.0,Calm,Calm,-,N/A,,Mostly Cloudy,0,2013-10-30 07:55:00
2:15 AM,28.4,24.8,86,29.99,10.0,Calm,Calm,-,N/A,,Overcast,0,2013-10-30 08:15:00
2:35 AM,26.6,21.2,80,30.00,10.0,NW,3.5,-,N/A,,Scattered Clouds,320,2013-10-30 08:35:00
2:55 AM,26.6,21.2,80,30.00,10.0,SE,4.6,-,N/A,,Clear,130,2013-10-30 08:55:00
3:15 AM,24.8,21.2,86,30.00,10.0,Calm,Calm,-,N/A,,Clear,0,2013-10-30 09:15:00
3:35 AM,23.0,17.6,80,30.00,10.0,NNE,4.6,-,N/A,,Clear,30,2013-10-30 09:35:00
3:55 AM,23.0,17.6,80,30.00,10.0,Calm,Calm,-,N/A,,Clear,0,2013-10-30 09:55:00
4:15 AM,21.2,15.8,80,30.00,10.0,Calm,Calm,-,N/A,,Clear,0,2013-10-30 10:15:00
4:35 AM,21.2,17.6,86,30.00,10.0,North,4.6,-,N/A,,Clear,360,2013-10-30 10:35:00
4:55 AM,21.2,15.8,80,30.00,10.0,North,4.6,-,N/A,,Clear,350,2013-10-30 10:55:00
5:15 AM,19.4,17.6,93,30.01,10.0,North,4.6,-,N/A,,Clear,350,2013-10-30 11:15:00
5:35 AM,19.4,15.8,86,30.01,10.0,Calm,Calm,-,N/A,,Clear,0,2013-10-30 11:35:00
5:55 AM,17.6,12.2,79,30.02,10.0,Calm,Calm,-,N/A,,Clear,0,2013-10-30 11:55:00
6:15 AM,17.6,15.8,93,30.02,10.0,Calm,Calm,-,N/A,,Clear,0,2013-10-30 12:15:00
6:35 AM,19.4,14.0,80,30.03,10.0,Calm,Calm,-,N/A,,Mostly Cloudy,0,2013-10-30 12:35:00
6:55 AM,17.6,12.2,79,30.03,10.0,Calm,Calm,-,N/A,,Mostly Cloudy,0,2013-10-30 12:55:00
7:15 AM,17.6,12.2,79,30.03,10.0,Calm,Calm,-,N/A,,Mostly Cloudy,0,2013-10-30 13:15:00
7:35 AM,15.8,10.4,79,30.03,10.0,Calm,Calm,-,N/A,,Overcast,0,2013-10-30 13:35:00
7:55 AM,17.6,14.0,86,30.04,10.0,Calm,Calm,-,N/A,,Mostly Cloudy,0,2013-10-30 13:55:00
8:15 AM,17.6,15.8,93,30.04,10.0,Calm,Calm,-,N/A,,Mostly Cloudy,0,2013-10-30 14:15:00
8:35 AM,17.6,12.2,79,30.05,10.0,Calm,Calm,-,N/A,,Partly Cloudy,0,2013-10-30 14:35:00
8:55 AM,19.4,14.0,80,30.05,10.0,Calm,Calm,-,N/A,,Partly Cloudy,0,2013-10-30 14:55:00
9:15 AM,19.4,15.8,86,30.06,10.0,Calm,Calm,-,N/A,,Partly Cloudy,0,2013-10-30 15:15:00
9:35 AM,21.2,17.6,86,30.06,10.0,Calm,Calm,-,N/A,,Clear,0,2013-10-30 15:35:00
9:55 AM,21.2,17.6,86,30.05,10.0,Calm,Calm,-,N/A,,Clear,0,2013-10-30 15:55:00
10:15 AM,23.0,17.6,80,30.06,10.0,Calm,Calm,-,N/A,,Clear,0,2013-10-30 16:15:00
10:35 AM,26.6,19.4,74,30.05,10.0,Calm,Calm,-,N/A,,Clear,0,2013-10-30 16:35:00
10:55 AM,28.4,21.2,74,30.04,10.0,Calm,Calm,-,N/A,,Clear,0,2013-10-30 16:55:00
11:15 AM,30.2,23.0,75,30.04,10.0,Calm,Calm,-,N/A,,Clear,0,2013-10-30 17:15:00
11:35 AM,30.2,23.0,75,30.03,10.0,SSW,3.5,-,N/A,,Clear,210,2013-10-30 17:35:00
11:55 AM,32.0,24.8,75,30.02,10.0,Calm,Calm,-,N/A,,Clear,0,2013-10-30 17:55:00
12:15 PM,33.8,24.8,70,30.01,10.0,SSE,3.5,-,N/A,,Clear,150,2013-10-30 18:15:00
12:35 PM,35.6,24.8,65,30.00,10.0,SW,3.5,-,N/A,,Partly Cloudy,220,2013-10-30 18:35:00
12:55 PM,37.4,24.8,60,29.99,10.0,SW,4.6,-,N/A,,Scattered Clouds,230,2013-10-30 18:55:00
1:15 PM,37.4,24.8,60,29.98,10.0,West,6.9,-,N/A,,Partly Cloudy,270,2013-10-30 19:15:00
1:35 PM,37.4,21.2,52,29.97,10.0,WSW,11.5,-,N/A,,Clear,250,2013-10-30 19:35:00
1:55 PM,37.4,19.4,48,29.96,10.0,WNW,13.8,17.3,N/A,,Scattered Clouds,290,2013-10-30 19:55:00
2:15 PM,37.4,21.2,52,29.96,10.0,NW,6.9,-,N/A,,Scattered Clouds,310,2013-10-30 20:15:00
2:35 PM,37.4,23.0,56,29.95,10.0,WNW,4.6,-,N/A,,Mostly Cloudy,300,2013-10-30 20:35:00
2:55 PM,37.4,24.8,60,29.95,10.0,Calm,Calm,-,N/A,,Mostly Cloudy,0,2013-10-30 20:55:00
3:35 PM,37.4,21.2,52,29.95,10.0,WNW,3.5,-,N/A,,Partly Cloudy,290,2013-10-30 21:35:00
3:55 PM,37.4,21.2,52,29.95,10.0,SW,3.5,-,N/A,,Mostly Cloudy,230,2013-10-30 21:55:00
4:15 PM,37.4,21.2,52,29.95,10.0,WSW,6.9,-,N/A,,Scattered Clouds,250,2013-10-30 22:15:00
4:35 PM,37.4,23.0,56,29.95,10.0,WSW,8.1,-,N/A,,Partly Cloudy,250,2013-10-30 22:35:00
5:15 PM,35.6,21.2,56,29.95,10.0,WSW,9.2,17.3,N/A,,Partly Cloudy,240,2013-10-30 23:15:00
5:35 PM,35.6,21.2,56,29.96,10.0,SW,11.5,-,N/A,,Clear,230,2013-10-30 23:35:00
5:55 PM,33.8,23.0,65,29.96,10.0,SW,10.4,-,N/A,,Clear,230,2013-10-30 23:55:00
6:15 PM,33.8,21.2,60,29.97,10.0,WSW,8.1,-,N/A,,Partly Cloudy,240,2013-10-31 00:15:00
6:55 PM,32.0,23.0,69,29.98,10.0,SW,12.7,-,N/A,,Mostly Cloudy,230,2013-10-31 00:55:00
7:15 PM,30.2,23.0,75,29.98,10.0,WSW,10.4,18.4,N/A,,Scattered Clouds,240,2013-10-31 01:15:00
7:35 PM,30.2,24.8,80,29.99,10.0,WSW,11.5,-,N/A,,Mostly Cloudy,250,2013-10-31 01:35:00
7:55 PM,30.2,23.0,75,29.99,10.0,WSW,6.9,-,N/A,,Scattered Clouds,240,2013-10-31 01:55:00
8:15 PM,30.2,23.0,75,29.99,10.0,WSW,6.9,-,N/A,,Mostly Cloudy,250,2013-10-31 02:15:00
9:15 PM,30.2,23.0,75,29.98,10.0,SW,9.2,-,N/A,,Overcast,230,2013-10-31 03:15:00
9:55 PM,30.2,23.0,75,29.99,10.0,WSW,6.9,-,N/A,,Overcast,240,2013-10-31 03:55:00
10:35 PM,30.2,21.2,69,30.00,10.0,West,4.6,-,N/A,,Overcast,260,2013-10-31 04:35:00
10:55 PM,30.2,21.2,69,30.00,10.0,WNW,8.1,-,N/A,,Overcast,300,2013-10-31 04:55:00
11:35 PM,30.2,21.2,69,30.01,10.0,West,3.5,-,N/A,,Scattered Clouds,280,2013-10-31 05:35:00
11:55 PM,28.4,21.2,74,30.00,10.0,Calm,Calm,-,N/A,,Clear,0,2013-10-31 05:55:00